Language: 


Des rapports , des résumés tant et plus, au choix de chacun....


Données statistiques de la station
Quotidien Rapport Juin 24, 2017 Unités:  Métrique    Anglais   les deux
« Précédent Jour
Suivant Jour »
Quotidien Hebdomadaire Mensuel Annuel Actuel
  Haut: Bas: Moyen:
Température: 20.8 °C 14.2 °C 17.7 °C
Pt de rosée: 17.0 °C 13.0 °C 15 °C
Humidité: 93 % 76 % 85 %
Vitesse du vent: 31.7 km/h 0.0 km/h 15 km/h
Rafales: 37.5 km/h - -
Vent:- - WSW
Pression: 1018.2 hPa 1014.1 hPa -
Précipitation: 0.0 mm    
Historical Graphs
 
 
Données statistiques pour Juin 24, 2017
Heure Température Point de rosée Pression Vent Vitesse du vent Refales Humidité Pluie (taux horaire)
00:01 15.6 °C 13.0 °C 1018.2 hPa SW 10.5 km/h 13.0 km/h 84 % 0.0 mm
00:06 15.6 °C 13.0 °C 1018.2 hPa WSW 14.0 km/h 14.0 km/h 85 % 0.0 mm
00:11 15.6 °C 13.0 °C 1018.2 hPa WSW 9.3 km/h 15.4 km/h 85 % 0.0 mm
00:16 15.5 °C 13.0 °C 1018.2 hPa SW 8.7 km/h 16.6 km/h 86 % 0.0 mm
00:21 15.4 °C 13.0 °C 1018.2 hPa WSW 10.5 km/h 16.6 km/h 86 % 0.0 mm
00:26 15.4 °C 13.0 °C 1018.2 hPa WSW 10.1 km/h 15.8 km/h 87 % 0.0 mm
00:31 15.4 °C 13.0 °C 1018.2 hPa SW 9.7 km/h 15.8 km/h 86 % 0.0 mm
00:36 15.3 °C 13.0 °C 1018.2 hPa SW 11.9 km/h 11.9 km/h 87 % 0.0 mm
00:41 15.2 °C 13.0 °C 1018.2 hPa WSW 9.0 km/h 14.0 km/h 87 % 0.0 mm
00:46 15.2 °C 13.0 °C 1018.2 hPa SW 12.6 km/h 14.0 km/h 88 % 0.0 mm
00:51 15.2 °C 13.0 °C 1018.2 hPa SW 6.9 km/h 13.7 km/h 88 % 0.0 mm
00:56 15.2 °C 13.0 °C 1018.2 hPa West 8.7 km/h 14.3 km/h 88 % 0.0 mm
01:01 15.1 °C 13.0 °C 1016.8 hPa SW 9.0 km/h 14.3 km/h 89 % 0.0 mm
01:06 15.1 °C 13.0 °C 1016.8 hPa SSW 3.5 km/h 13.7 km/h 89 % 0.0 mm
01:11 15.1 °C 13.0 °C 1016.8 hPa SW 9.0 km/h 15.4 km/h 89 % 0.0 mm
01:16 15.1 °C 13.0 °C 1016.8 hPa WSW 6.4 km/h 15.4 km/h 89 % 0.0 mm
01:21 15.0 °C 13.0 °C 1016.8 hPa SW 10.5 km/h 15.1 km/h 90 % 0.0 mm
01:26 15.0 °C 13.0 °C 1016.8 hPa SSW 6.4 km/h 15.1 km/h 90 % 0.0 mm
01:31 14.9 °C 13.0 °C 1016.8 hPa SSW 9.3 km/h 14.0 km/h 90 % 0.0 mm
01:36 14.9 °C 13.0 °C 1016.8 hPa SW 10.5 km/h 15.4 km/h 90 % 0.0 mm
01:41 14.9 °C 14.0 °C 1016.8 hPa SSW 9.3 km/h 15.4 km/h 91 % 0.0 mm
01:46 14.9 °C 14.0 °C 1016.8 hPa SW 10.5 km/h 14.8 km/h 91 % 0.0 mm
01:51 14.9 °C 14.0 °C 1016.8 hPa SSW 13.7 km/h 14.0 km/h 91 % 0.0 mm
01:53 14.9 °C 14.0 °C 1016.8 hPa WSW 8.7 km/h 14.0 km/h 91 % 0.0 mm
01:58 14.8 °C 13.0 °C 1016.8 hPa West 9.0 km/h 15.8 km/h 91 % 0.0 mm
02:03 14.7 °C 13.0 °C 1016.8 hPa WSW 11.9 km/h 15.8 km/h 91 % 0.0 mm
02:08 14.7 °C 13.0 °C 1016.8 hPa SSW 9.7 km/h 13.0 km/h 91 % 0.0 mm
02:13 14.6 °C 13.0 °C 1016.8 hPa SW 9.0 km/h 15.4 km/h 91 % 0.0 mm
02:18 14.6 °C 13.0 °C 1016.8 hPa SW 8.7 km/h 15.4 km/h 92 % 0.0 mm
02:23 14.6 °C 13.0 °C 1016.8 hPa SSW 14.0 km/h 17.2 km/h 92 % 0.0 mm
02:28 14.5 °C 13.0 °C 1016.8 hPa WSW 7.9 km/h 17.2 km/h 92 % 0.0 mm
02:33 14.5 °C 13.0 °C 1016.8 hPa SW 6.9 km/h 14.0 km/h 92 % 0.0 mm
02:38 14.4 °C 13.0 °C 1016.8 hPa SW 6.4 km/h 10.5 km/h 92 % 0.0 mm
02:43 14.4 °C 13.0 °C 1016.8 hPa WSW 6.4 km/h 11.9 km/h 92 % 0.0 mm
02:48 14.3 °C 13.0 °C 1016.8 hPa WSW 6.4 km/h 11.9 km/h 92 % 0.0 mm
02:53 14.3 °C 13.0 °C 1016.8 hPa SSW 11.6 km/h 11.6 km/h 92 % 0.0 mm
02:58 14.2 °C 13.0 °C 1016.8 hPa WSW 7.9 km/h 11.6 km/h 92 % 0.0 mm
03:03 14.2 °C 13.0 °C 1016.8 hPa SW 4.0 km/h 12.6 km/h 93 % 0.0 mm
03:08 14.3 °C 13.0 °C 1016.8 hPa SSW 5.8 km/h 12.6 km/h 93 % 0.0 mm
03:13 14.4 °C 13.0 °C 1016.8 hPa SW 6.9 km/h 11.9 km/h 93 % 0.0 mm
03:18 14.5 °C 14.0 °C 1016.8 hPa Calm   11.9 km/h 93 % 0.0 mm
03:23 14.6 °C 14.0 °C 1016.8 hPa West 9.0 km/h 11.9 km/h 93 % 0.0 mm
03:28 14.6 °C 14.0 °C 1016.8 hPa SW 8.7 km/h 12.6 km/h 93 % 0.0 mm
03:33 14.7 °C 14.0 °C 1016.8 hPa Calm   12.6 km/h 93 % 0.0 mm
03:38 14.7 °C 14.0 °C 1016.8 hPa WSW 5.8 km/h 9.7 km/h 93 % 0.0 mm
03:43 14.7 °C 14.0 °C 1016.8 hPa WSW 5.8 km/h 9.3 km/h 93 % 0.0 mm
03:48 14.8 °C 14.0 °C 1016.8 hPa SSW 5.5 km/h 7.9 km/h 93 % 0.0 mm
03:53 14.8 °C 14.0 °C 1016.8 hPa SSW 4.7 km/h 8.7 km/h 93 % 0.0 mm
03:58 14.9 °C 14.0 °C 1016.8 hPa Calm   9.0 km/h 93 % 0.0 mm
04:03 14.9 °C 14.0 °C 1016.8 hPa SSW 10.5 km/h 12.6 km/h 93 % 0.0 mm
04:08 15.0 °C 14.0 °C 1016.8 hPa SW 10.5 km/h 12.6 km/h 93 % 0.0 mm
04:13 15.1 °C 14.0 °C 1016.8 hPa SW 5.0 km/h 10.5 km/h 93 % 0.0 mm
04:18 15.2 °C 14.0 °C 1016.8 hPa WSW 6.9 km/h 10.1 km/h 93 % 0.0 mm
04:23 15.2 °C 14.0 °C 1016.8 hPa SSW 6.1 km/h 10.1 km/h 92 % 0.0 mm
04:28 15.3 °C 14.0 °C 1016.8 hPa Calm   10.1 km/h 92 % 0.0 mm
04:34 15.3 °C 14.0 °C 1016.1 hPa Calm   10.1 km/h 92 % 0.0 mm
04:39 15.4 °C 14.0 °C 1016.1 hPa SSW 6.4 km/h 9.0 km/h 92 % 0.0 mm
04:44 15.5 °C 14.0 °C 1016.1 hPa South 7.9 km/h 10.1 km/h 92 % 0.0 mm
04:49 15.6 °C 14.0 °C 1016.1 hPa SSW 1.4 km/h 10.1 km/h 92 % 0.0 mm
04:54 15.6 °C 14.0 °C 1016.1 hPa Calm   7.2 km/h 92 % 0.0 mm
04:59 15.6 °C 14.0 °C 1016.1 hPa Calm   9.0 km/h 92 % 0.0 mm
05:04 15.6 °C 14.0 °C 1016.1 hPa Calm   9.0 km/h 92 % 0.0 mm
05:09 15.6 °C 14.0 °C 1016.1 hPa WSW 5.8 km/h 8.7 km/h 92 % 0.0 mm
05:14 15.7 °C 14.0 °C 1016.1 hPa WSW 3.5 km/h 11.9 km/h 92 % 0.0 mm
05:19 15.7 °C 14.0 °C 1016.1 hPa SW 9.7 km/h 11.9 km/h 91 % 0.0 mm
05:24 15.7 °C 14.0 °C 1016.1 hPa WSW 14.8 km/h 17.2 km/h 91 % 0.0 mm
05:29 15.8 °C 14.0 °C 1016.1 hPa West 14.0 km/h 18.3 km/h 91 % 0.0 mm
05:34 15.9 °C 14.0 °C 1016.1 hPa WSW 16.6 km/h 20.6 km/h 89 % 0.0 mm
05:39 15.9 °C 14.0 °C 1016.1 hPa WSW 12.6 km/h 20.6 km/h 89 % 0.0 mm
05:44 16.0 °C 14.0 °C 1016.1 hPa West 17.7 km/h 21.2 km/h 87 % 0.0 mm
05:50 15.9 °C 14.0 °C 1016.1 hPa WSW 13.0 km/h 21.2 km/h 86 % 0.0 mm
05:55 15.9 °C 14.0 °C 1016.1 hPa West 13.7 km/h 21.2 km/h 86 % 0.0 mm
06:00 15.9 °C 14.0 °C 1016.1 hPa WSW 17.2 km/h 17.2 km/h 86 % 0.0 mm
06:05 15.9 °C 14.0 °C 1015.1 hPa West 10.5 km/h 17.2 km/h 86 % 0.0 mm
06:10 16.1 °C 14.0 °C 1015.1 hPa West 11.9 km/h 27.0 km/h 85 % 0.0 mm
06:15 16.1 °C 14.0 °C 1015.1 hPa WSW 15.4 km/h 27.0 km/h 85 % 0.0 mm
06:20 16.2 °C 14.0 °C 1015.1 hPa WSW 12.6 km/h 20.9 km/h 85 % 0.0 mm
06:25 16.4 °C 14.0 °C 1015.1 hPa WSW 12.2 km/h 22.7 km/h 84 % 0.0 mm
06:30 16.4 °C 14.0 °C 1015.1 hPa West 9.0 km/h 22.7 km/h 85 % 0.0 mm
06:35 16.5 °C 14.0 °C 1015.1 hPa WSW 14.0 km/h 17.7 km/h 84 % 0.0 mm
06:40 16.5 °C 14.0 °C 1015.1 hPa WSW 15.8 km/h 17.7 km/h 84 % 0.0 mm
06:45 16.5 °C 14.0 °C 1015.1 hPa WSW 13.0 km/h 17.7 km/h 84 % 0.0 mm
06:50 16.6 °C 14.0 °C 1016.1 hPa West 12.2 km/h 20.9 km/h 84 % 0.0 mm
06:55 16.6 °C 14.0 °C 1016.1 hPa WSW 12.6 km/h 20.9 km/h 84 % 0.0 mm
07:00 16.6 °C 14.0 °C 1016.1 hPa WSW 12.6 km/h 15.8 km/h 84 % 0.0 mm
07:05 16.6 °C 14.0 °C 1016.1 hPa West 16.6 km/h 16.6 km/h 84 % 0.0 mm
07:10 16.7 °C 14.0 °C 1016.1 hPa WSW 23.8 km/h 23.8 km/h 84 % 0.0 mm
07:15 16.7 °C 14.0 °C 1016.1 hPa WSW 21.2 km/h 23.8 km/h 84 % 0.0 mm
07:20 16.7 °C 14.0 °C 1015.1 hPa WSW 15.1 km/h 23.3 km/h 84 % 0.0 mm
07:25 16.8 °C 14.0 °C 1015.1 hPa WSW 20.6 km/h 31.4 km/h 84 % 0.0 mm
07:30 17.0 °C 14.0 °C 1015.1 hPa West 12.6 km/h 31.4 km/h 84 % 0.0 mm
07:35 17.2 °C 14.0 °C 1015.1 hPa West 27.4 km/h 27.4 km/h 83 % 0.0 mm
07:40 17.3 °C 14.0 °C 1015.1 hPa WSW 17.2 km/h 27.7 km/h 83 % 0.0 mm
07:45 17.3 °C 14.0 °C 1015.1 hPa WSW 16.9 km/h 27.7 km/h 83 % 0.0 mm
07:50 17.3 °C 14.0 °C 1015.1 hPa WSW 13.0 km/h 28.0 km/h 82 % 0.0 mm
07:55 17.5 °C 15.0 °C 1015.1 hPa SSW 21.2 km/h 28.0 km/h 82 % 0.0 mm
08:00 17.5 °C 14.0 °C 1015.1 hPa West 23.3 km/h 25.9 km/h 81 % 0.0 mm
08:05 17.6 °C 14.0 °C 1015.1 hPa West 17.7 km/h 30.6 km/h 81 % 0.0 mm
08:10 17.6 °C 14.0 °C 1015.1 hPa WSW 20.6 km/h 32.0 km/h 80 % 0.0 mm
08:15 17.6 °C 14.0 °C 1015.1 hPa WSW 16.3 km/h 32.0 km/h 80 % 0.0 mm
08:20 17.6 °C 14.0 °C 1015.1 hPa West 20.1 km/h 24.8 km/h 80 % 0.0 mm
08:26 17.6 °C 14.0 °C 1015.1 hPa West 27.7 km/h 37.5 km/h 80 % 0.0 mm
08:31 17.8 °C 14.0 °C 1016.1 hPa West 20.1 km/h 37.5 km/h 79 % 0.0 mm
08:36 17.9 °C 14.0 °C 1016.1 hPa WSW 16.6 km/h 35.6 km/h 79 % 0.0 mm
08:41 18.0 °C 14.0 °C 1016.1 hPa West 20.9 km/h 35.6 km/h 78 % 0.0 mm
08:46 18.0 °C 14.0 °C 1016.1 hPa WSW 20.6 km/h 35.6 km/h 78 % 0.0 mm
08:51 17.9 °C 14.0 °C 1016.1 hPa West 19.5 km/h 32.0 km/h 78 % 0.0 mm
08:57 18.0 °C 14.0 °C 1016.1 hPa SSW 24.5 km/h 31.4 km/h 78 % 0.0 mm
09:02 18.0 °C 14.0 °C 1016.1 hPa West 15.8 km/h 31.4 km/h 78 % 0.0 mm
09:06 17.9 °C 14.0 °C 1016.1 hPa SW 17.2 km/h 31.7 km/h 79 % 0.0 mm
09:12 17.9 °C 14.0 °C 1016.1 hPa West 24.5 km/h 31.7 km/h 79 % 0.0 mm
09:17 17.9 °C 15.0 °C 1016.1 hPa West 27.4 km/h 27.7 km/h 80 % 0.0 mm
09:22 17.9 °C 15.0 °C 1016.1 hPa West 16.3 km/h 27.7 km/h 80 % 0.0 mm
09:27 17.9 °C 15.0 °C 1016.1 hPa West 13.7 km/h 34.3 km/h 80 % 0.0 mm
09:32 17.9 °C 15.0 °C 1016.1 hPa SW 14.0 km/h 34.3 km/h 81 % 0.0 mm
09:37 17.9 °C 15.0 °C 1016.1 hPa WSW 20.6 km/h 28.0 km/h 81 % 0.0 mm
09:42 17.8 °C 14.0 °C 1016.1 hPa WSW 16.6 km/h 28.0 km/h 81 % 0.0 mm
09:47 17.8 °C 14.0 °C 1016.1 hPa West 22.7 km/h 28.5 km/h 81 % 0.0 mm
09:52 17.8 °C 14.0 °C 1016.1 hPa WSW 15.8 km/h 31.4 km/h 81 % 0.0 mm
09:57 17.8 °C 15.0 °C 1016.1 hPa West 20.9 km/h 31.4 km/h 82 % 0.0 mm
10:02 17.9 °C 15.0 °C 1016.1 hPa WSW 19.8 km/h 25.6 km/h 82 % 0.0 mm
10:07 18.2 °C 15.0 °C 1016.1 hPa WSW 31.7 km/h 32.0 km/h 81 % 0.0 mm
10:12 18.3 °C 15.0 °C 1016.1 hPa WSW 15.4 km/h 32.0 km/h 80 % 0.0 mm
10:17 18.3 °C 15.0 °C 1016.8 hPa WSW 29.9 km/h 29.9 km/h 80 % 0.0 mm
10:22 18.2 °C 15.0 °C 1016.8 hPa WSW 25.3 km/h 29.9 km/h 80 % 0.0 mm
10:27 18.2 °C 15.0 °C 1016.8 hPa WSW 12.6 km/h 25.3 km/h 80 % 0.0 mm
10:31 18.3 °C 15.0 °C 1016.1 hPa WSW 9.3 km/h 25.3 km/h 80 % 0.0 mm
10:36 18.4 °C 15.0 °C 1016.1 hPa WSW 15.8 km/h 21.2 km/h 80 % 0.0 mm
10:41 18.5 °C 15.0 °C 1016.1 hPa WSW 16.3 km/h 21.2 km/h 80 % 0.0 mm
10:42 18.5 °C 15.0 °C 1016.1 hPa South 9.7 km/h 20.9 km/h 80 % 0.0 mm
10:47 18.6 °C 15.0 °C 1016.1 hPa West 10.5 km/h 20.9 km/h 80 % 0.0 mm
10:52 18.6 °C 15.0 °C 1016.1 hPa WSW 9.3 km/h 20.6 km/h 80 % 0.0 mm
10:58 18.4 °C 15.0 °C 1016.1 hPa WSW 20.6 km/h 28.0 km/h 80 % 0.0 mm
11:03 18.3 °C 15.0 °C 1016.1 hPa WSW 12.6 km/h 28.0 km/h 81 % 0.0 mm
11:08 18.4 °C 15.0 °C 1016.1 hPa West 20.9 km/h 25.9 km/h 81 % 0.0 mm
11:13 18.3 °C 15.0 °C 1016.1 hPa SW 12.2 km/h 27.0 km/h 81 % 0.0 mm
11:18 18.3 °C 15.0 °C 1016.1 hPa WSW 23.8 km/h 27.0 km/h 82 % 0.0 mm
11:23 18.2 °C 15.0 °C 1016.1 hPa West 16.6 km/h 25.3 km/h 83 % 0.0 mm
11:28 18.0 °C 16.0 °C 1016.1 hPa WSW 16.6 km/h 25.3 km/h 86 % 0.0 mm
11:33 17.9 °C 16.0 °C 1016.1 hPa WSW 12.2 km/h 21.2 km/h 87 % 0.0 mm
11:38 17.9 °C 16.0 °C 1016.1 hPa West 26.7 km/h 26.7 km/h 87 % 0.0 mm
11:43 18.0 °C 16.0 °C 1016.1 hPa West 16.9 km/h 26.7 km/h 86 % 0.0 mm
11:48 18.0 °C 16.0 °C 1016.1 hPa WSW 19.5 km/h 24.8 km/h 85 % 0.0 mm
11:53 18.1 °C 15.0 °C 1016.1 hPa West 24.8 km/h 24.8 km/h 84 % 0.0 mm
11:58 18.3 °C 16.0 °C 1016.1 hPa WSW 16.9 km/h 24.8 km/h 84 % 0.0 mm
12:03 18.4 °C 16.0 °C 1016.1 hPa SW 17.7 km/h 25.9 km/h 84 % 0.0 mm
12:08 18.4 °C 15.0 °C 1016.1 hPa WSW 17.7 km/h 27.7 km/h 83 % 0.0 mm
12:13 18.4 °C 16.0 °C 1016.1 hPa WSW 14.0 km/h 27.7 km/h 84 % 0.0 mm
12:18 18.4 °C 16.0 °C 1016.1 hPa WSW 14.0 km/h 24.8 km/h 84 % 0.0 mm
12:23 18.5 °C 16.0 °C 1016.1 hPa WSW 20.9 km/h 24.5 km/h 83 % 0.0 mm
12:28 18.4 °C 15.0 °C 1016.1 hPa WSW 20.9 km/h 27.0 km/h 83 % 0.0 mm
12:33 18.5 °C 16.0 °C 1016.1 hPa WSW 16.3 km/h 27.0 km/h 84 % 0.0 mm
12:38 18.6 °C 16.0 °C 1016.1 hPa West 19.8 km/h 24.5 km/h 83 % 0.0 mm
12:43 18.6 °C 16.0 °C 1016.1 hPa WSW 13.7 km/h 27.4 km/h 83 % 0.0 mm
12:48 18.5 °C 16.0 °C 1016.1 hPa West 19.5 km/h 27.4 km/h 83 % 0.0 mm
12:53 18.5 °C 16.0 °C 1016.1 hPa West 16.6 km/h 29.1 km/h 83 % 0.0 mm
12:58 18.5 °C 16.0 °C 1016.1 hPa WSW 19.8 km/h 29.1 km/h 83 % 0.0 mm
13:03 18.6 °C 16.0 °C 1016.1 hPa SW 13.0 km/h 28.5 km/h 83 % 0.0 mm
13:08 18.6 °C 16.0 °C 1016.1 hPa WSW 27.4 km/h 28.5 km/h 82 % 0.0 mm
13:14 18.7 °C 16.0 °C 1016.1 hPa WSW 16.6 km/h 28.5 km/h 82 % 0.0 mm
13:19 18.8 °C 16.0 °C 1016.1 hPa WSW 20.1 km/h 31.7 km/h 82 % 0.0 mm
13:24 18.9 °C 16.0 °C 1016.1 hPa WSW 12.2 km/h 31.7 km/h 82 % 0.0 mm
13:29 19.1 °C 16.0 °C 1016.1 hPa SSW 19.5 km/h 29.1 km/h 81 % 0.0 mm
13:34 19.2 °C 16.0 °C 1016.1 hPa West 21.9 km/h 25.9 km/h 81 % 0.0 mm
13:39 19.3 °C 16.0 °C 1016.1 hPa WSW 11.9 km/h 27.7 km/h 81 % 0.0 mm
13:44 19.2 °C 16.0 °C 1016.1 hPa West 16.6 km/h 27.7 km/h 81 % 0.0 mm
13:49 19.1 °C 16.0 °C 1016.1 hPa SW 16.3 km/h 23.0 km/h 81 % 0.0 mm
13:54 19.0 °C 16.0 °C 1016.1 hPa WSW 12.2 km/h 23.0 km/h 81 % 0.0 mm
13:59 19.1 °C 16.0 °C 1016.1 hPa SW 17.2 km/h 23.3 km/h 82 % 0.0 mm
14:04 19.0 °C 16.0 °C 1016.1 hPa WSW 17.2 km/h 23.3 km/h 82 % 0.0 mm
14:09 19.1 °C 16.0 °C 1016.1 hPa WSW 17.2 km/h 21.6 km/h 82 % 0.0 mm
14:14 19.0 °C 16.0 °C 1016.1 hPa WSW 16.6 km/h 21.9 km/h 82 % 0.0 mm
14:19 19.2 °C 16.0 °C 1015.1 hPa SSW 19.8 km/h 21.9 km/h 82 % 0.0 mm
14:25 19.3 °C 16.0 °C 1015.1 hPa SW 13.7 km/h 21.6 km/h 82 % 0.0 mm
14:30 19.2 °C 16.0 °C 1015.1 hPa West 16.9 km/h 21.9 km/h 82 % 0.0 mm
14:35 19.1 °C 16.0 °C 1016.1 hPa WSW 17.2 km/h 21.9 km/h 82 % 0.0 mm
14:40 19.2 °C 16.0 °C 1016.1 hPa West 14.0 km/h 28.0 km/h 82 % 0.0 mm
14:45 19.3 °C 16.0 °C 1016.1 hPa West 26.7 km/h 28.0 km/h 81 % 0.0 mm
14:50 19.4 °C 16.0 °C 1015.1 hPa West 14.0 km/h 26.7 km/h 81 % 0.0 mm
14:55 19.4 °C 16.0 °C 1015.1 hPa SW 16.6 km/h 27.0 km/h 81 % 0.0 mm
15:00 19.4 °C 16.0 °C 1015.1 hPa WSW 12.6 km/h 27.0 km/h 81 % 0.0 mm
15:05 19.5 °C 16.0 °C 1015.1 hPa WSW 16.6 km/h 26.2 km/h 80 % 0.0 mm
15:10 19.5 °C 16.0 °C 1015.1 hPa WSW 9.7 km/h 24.5 km/h 81 % 0.0 mm
15:15 19.6 °C 16.0 °C 1015.1 hPa WSW 16.6 km/h 24.5 km/h 81 % 0.0 mm
15:20 19.6 °C 16.0 °C 1015.1 hPa WSW 20.1 km/h 23.0 km/h 81 % 0.0 mm
15:25 19.6 °C 16.0 °C 1015.1 hPa West 17.2 km/h 25.9 km/h 81 % 0.0 mm
15:30 19.6 °C 16.0 °C 1015.1 hPa WSW 16.9 km/h 25.9 km/h 81 % 0.0 mm
15:35 19.8 °C 16.0 °C 1015.1 hPa WSW 12.2 km/h 25.6 km/h 80 % 0.0 mm
15:40 20.0 °C 16.0 °C 1015.1 hPa West 16.6 km/h 24.5 km/h 79 % 0.0 mm
15:45 19.9 °C 16.0 °C 1015.1 hPa West 19.8 km/h 30.6 km/h 79 % 0.0 mm
15:50 20.1 °C 16.0 °C 1014.1 hPa SW 12.6 km/h 30.6 km/h 79 % 0.0 mm
15:55 20.2 °C 17.0 °C 1014.1 hPa WSW 20.6 km/h 23.3 km/h 79 % 0.0 mm
16:00 20.2 °C 17.0 °C 1014.1 hPa WSW 13.7 km/h 24.8 km/h 79 % 0.0 mm
16:05 20.2 °C 17.0 °C 1014.1 hPa NW 16.9 km/h 24.8 km/h 79 % 0.0 mm
16:10 20.2 °C 17.0 °C 1014.1 hPa West 18.3 km/h 27.7 km/h 79 % 0.0 mm
16:15 19.9 °C 16.0 °C 1014.1 hPa WSW 14.8 km/h 27.7 km/h 78 % 0.0 mm
16:20 20.0 °C 16.0 °C 1015.1 hPa WSW 9.0 km/h 27.4 km/h 78 % 0.0 mm
16:25 20.1 °C 16.0 °C 1015.1 hPa SW 16.9 km/h 24.8 km/h 79 % 0.0 mm
16:30 20.1 °C 16.0 °C 1015.1 hPa West 29.1 km/h 29.1 km/h 78 % 0.0 mm
16:35 20.2 °C 16.0 °C 1015.1 hPa SW 24.5 km/h 36.0 km/h 78 % 0.0 mm
16:41 20.3 °C 16.0 °C 1015.1 hPa WSW 24.8 km/h 36.0 km/h 78 % 0.0 mm
16:46 20.2 °C 16.0 °C 1015.1 hPa West 22.4 km/h 28.8 km/h 77 % 0.0 mm
16:51 20.2 °C 16.0 °C 1015.1 hPa WSW 16.6 km/h 28.5 km/h 78 % 0.0 mm
16:56 20.5 °C 17.0 °C 1015.1 hPa SW 29.1 km/h 29.1 km/h 78 % 0.0 mm
17:01 20.8 °C 17.0 °C 1015.1 hPa WSW 22.7 km/h 29.1 km/h 77 % 0.0 mm
17:06 20.7 °C 16.0 °C 1016.1 hPa WSW 26.7 km/h 30.6 km/h 76 % 0.0 mm
17:11 20.7 °C 16.0 °C 1016.1 hPa West 22.4 km/h 30.6 km/h 76 % 0.0 mm
17:16 20.4 °C 16.0 °C 1015.1 hPa West 20.9 km/h 30.2 km/h 76 % 0.0 mm
17:21 20.4 °C 16.0 °C 1015.1 hPa West 30.6 km/h 30.6 km/h 76 % 0.0 mm
17:26 20.1 °C 16.0 °C 1015.1 hPa West 20.6 km/h 32.0 km/h 77 % 0.0 mm
17:31 20.2 °C 16.0 °C 1015.1 hPa West 20.1 km/h 32.0 km/h 78 % 0.0 mm
17:36 20.3 °C 16.0 °C 1015.1 hPa WSW 20.6 km/h 24.8 km/h 78 % 0.0 mm
17:42 20.2 °C 16.0 °C 1015.1 hPa SW 21.2 km/h 29.1 km/h 78 % 0.0 mm
17:47 20.1 °C 16.0 °C 1015.1 hPa WSW 20.6 km/h 29.1 km/h 78 % 0.0 mm
17:52 20.0 °C 16.0 °C 1015.1 hPa West 24.5 km/h 29.9 km/h 78 % 0.0 mm
17:57 20.0 °C 16.0 °C 1015.1 hPa WSW 23.8 km/h 29.9 km/h 78 % 0.0 mm
18:02 20.3 °C 16.0 °C 1015.1 hPa West 28.0 km/h 29.9 km/h 78 % 0.0 mm
18:07 20.3 °C 16.0 °C 1015.1 hPa SW 20.1 km/h 32.0 km/h 78 % 0.0 mm
18:12 20.3 °C 16.0 °C 1015.1 hPa WSW 19.5 km/h 32.0 km/h 78 % 0.0 mm
18:13 20.3 °C 16.0 °C 1015.1 hPa WSW 24.8 km/h 32.0 km/h 78 % 0.0 mm
18:18 19.8 °C 16.0 °C 1015.1 hPa West 16.3 km/h 25.3 km/h 79 % 0.0 mm
18:23 19.8 °C 16.0 °C 1015.1 hPa WSW 30.9 km/h 30.9 km/h 79 % 0.0 mm
18:28 19.8 °C 16.0 °C 1015.1 hPa WSW 16.9 km/h 30.9 km/h 79 % 0.0 mm
18:33 19.8 °C 16.0 °C 1015.1 hPa WSW 13.7 km/h 30.6 km/h 79 % 0.0 mm
18:38 19.8 °C 16.0 °C 1015.1 hPa WSW 23.8 km/h 33.5 km/h 79 % 0.0 mm
18:43 19.8 °C 16.0 °C 1015.1 hPa SW 13.0 km/h 33.5 km/h 79 % 0.0 mm
18:48 19.8 °C 16.0 °C 1015.1 hPa WSW 20.1 km/h 27.7 km/h 79 % 0.0 mm
18:53 19.8 °C 16.0 °C 1015.1 hPa WSW 20.1 km/h 27.7 km/h 79 % 0.0 mm
18:58 19.8 °C 16.0 °C 1015.1 hPa WSW 11.1 km/h 23.8 km/h 79 % 0.0 mm
19:03 19.3 °C 16.0 °C 1014.1 hPa SSW 13.7 km/h 27.0 km/h 82 % 0.0 mm
19:08 19.5 °C 17.0 °C 1014.1 hPa WSW 15.8 km/h 27.0 km/h 82 % 0.0 mm
19:13 19.5 °C 17.0 °C 1014.1 hPa West 8.7 km/h 24.8 km/h 82 % 0.0 mm
19:19 19.4 °C 16.0 °C 1015.1 hPa WSW 20.6 km/h 24.8 km/h 82 % 0.0 mm
19:24 19.4 °C 16.0 °C 1015.1 hPa SW 15.8 km/h 28.0 km/h 82 % 0.0 mm
19:28 19.3 °C 16.0 °C 1015.1 hPa SW 17.7 km/h 28.0 km/h 82 % 0.0 mm
19:33 19.3 °C 16.0 °C 1014.1 hPa SW 11.6 km/h 28.0 km/h 82 % 0.0 mm
19:38 19.3 °C 16.0 °C 1014.1 hPa WSW 16.6 km/h 28.0 km/h 82 % 0.0 mm
19:43 19.2 °C 16.0 °C 1014.1 hPa WSW 13.0 km/h 25.6 km/h 82 % 0.0 mm
19:48 19.2 °C 16.0 °C 1015.1 hPa SSW 12.6 km/h 24.5 km/h 82 % 0.0 mm
19:51 19.1 °C 16.0 °C 1015.1 hPa West 15.8 km/h 21.6 km/h 82 % 0.0 mm
19:56 19.0 °C 16.0 °C 1015.1 hPa West 20.9 km/h 23.3 km/h 82 % 0.0 mm
20:01 18.9 °C 16.0 °C 1014.1 hPa WSW 19.8 km/h 35.2 km/h 83 % 0.0 mm
20:06 18.8 °C 16.0 °C 1014.1 hPa WNW 21.2 km/h 35.2 km/h 83 % 0.0 mm
20:11 18.8 °C 16.0 °C 1014.1 hPa WSW 14.0 km/h 28.5 km/h 84 % 0.0 mm
20:16 18.7 °C 16.0 °C 1014.1 hPa WSW 20.9 km/h 28.5 km/h 84 % 0.0 mm
20:21 18.7 °C 16.0 °C 1014.1 hPa West 17.2 km/h 27.4 km/h 84 % 0.0 mm
20:22 18.7 °C 16.0 °C 1014.1 hPa WSW 15.8 km/h 27.4 km/h 84 % 0.0 mm
20:27 18.7 °C 16.0 °C 1014.1 hPa WSW 19.8 km/h 25.6 km/h 84 % 0.0 mm
20:32 18.7 °C 16.0 °C 1014.1 hPa WSW 20.1 km/h 27.7 km/h 84 % 0.0 mm
20:37 18.6 °C 16.0 °C 1014.1 hPa WSW 15.8 km/h 31.7 km/h 85 % 0.0 mm
20:42 18.6 °C 16.0 °C 1014.1 hPa SSW 16.9 km/h 31.7 km/h 85 % 0.0 mm
20:47 18.6 °C 16.0 °C 1014.1 hPa WSW 16.9 km/h 23.3 km/h 85 % 0.0 mm
20:52 18.6 °C 16.0 °C 1014.1 hPa WSW 16.9 km/h 21.2 km/h 86 % 0.0 mm
20:57 18.6 °C 16.0 °C 1014.1 hPa WSW 17.7 km/h 25.6 km/h 86 % 0.0 mm
21:02 18.5 °C 16.0 °C 1014.1 hPa WSW 17.7 km/h 25.6 km/h 86 % 0.0 mm
21:07 18.5 °C 17.0 °C 1014.1 hPa SSW 11.9 km/h 24.8 km/h 87 % 0.0 mm
21:12 18.4 °C 16.0 °C 1014.1 hPa SW 17.7 km/h 24.8 km/h 86 % 0.0 mm
21:17 18.4 °C 16.0 °C 1014.1 hPa SSW 9.3 km/h 27.4 km/h 86 % 0.0 mm
21:18 18.4 °C 16.0 °C 1014.1 hPa WSW 20.1 km/h 27.4 km/h 86 % 0.0 mm
21:23 18.3 °C 16.0 °C 1014.1 hPa WSW 20.1 km/h 27.4 km/h 86 % 0.0 mm
21:28 18.2 °C 16.0 °C 1014.1 hPa WSW 17.7 km/h 23.3 km/h 87 % 0.0 mm
21:33 18.2 °C 16.0 °C 1014.1 hPa West 9.7 km/h 23.3 km/h 87 % 0.0 mm
21:38 18.2 °C 16.0 °C 1014.1 hPa West 11.6 km/h 24.8 km/h 87 % 0.0 mm
21:43 18.1 °C 16.0 °C 1014.1 hPa WSW 12.6 km/h 24.8 km/h 87 % 0.0 mm
21:48 18.1 °C 16.0 °C 1014.1 hPa WSW 13.7 km/h 20.1 km/h 87 % 0.0 mm
21:53 18.1 °C 16.0 °C 1014.1 hPa WSW 7.9 km/h 20.1 km/h 87 % 0.0 mm
21:58 18.0 °C 16.0 °C 1014.1 hPa West 13.0 km/h 20.1 km/h 87 % 0.0 mm
22:03 18.0 °C 16.0 °C 1014.1 hPa WSW 12.6 km/h 21.2 km/h 88 % 0.0 mm
22:08 18.0 °C 16.0 °C 1014.1 hPa WSW 15.4 km/h 27.4 km/h 88 % 0.0 mm
22:09 18.0 °C 16.0 °C 1014.1 hPa West 10.5 km/h 27.4 km/h 88 % 0.0 mm
22:14 18.0 °C 16.0 °C 1014.1 hPa WSW 11.9 km/h 27.4 km/h 88 % 0.0 mm
22:19 17.9 °C 16.0 °C 1014.1 hPa West 13.0 km/h 20.1 km/h 89 % 0.0 mm
22:24 17.9 °C 16.0 °C 1014.1 hPa SW 13.7 km/h 23.8 km/h 89 % 0.0 mm
22:29 17.9 °C 16.0 °C 1014.1 hPa WSW 19.8 km/h 23.8 km/h 89 % 0.0 mm
22:34 17.9 °C 16.0 °C 1014.1 hPa WSW 17.2 km/h 23.8 km/h 89 % 0.0 mm
22:39 17.9 °C 16.0 °C 1014.1 hPa WSW 12.6 km/h 23.8 km/h 89 % 0.0 mm
22:44 17.9 °C 16.0 °C 1014.1 hPa West 13.0 km/h 24.8 km/h 89 % 0.0 mm
22:49 17.9 °C 16.0 °C 1014.1 hPa SW 13.0 km/h 27.0 km/h 89 % 0.0 mm
22:54 17.9 °C 16.0 °C 1014.1 hPa West 12.2 km/h 27.0 km/h 89 % 0.0 mm
22:59 17.9 °C 16.0 °C 1014.1 hPa WSW 19.1 km/h 19.8 km/h 90 % 0.0 mm
23:04 17.8 °C 16.0 °C 1014.1 hPa West 13.0 km/h 20.1 km/h 90 % 0.0 mm
23:10 17.8 °C 16.0 °C 1014.1 hPa West 10.1 km/h 23.0 km/h 90 % 0.0 mm
23:13 17.8 °C 16.0 °C 1014.1 hPa WSW 16.3 km/h 23.0 km/h 90 % 0.0 mm
23:19 17.8 °C 16.0 °C 1014.1 hPa WSW 10.5 km/h 19.5 km/h 90 % 0.0 mm
23:24 17.8 °C 16.0 °C 1014.1 hPa WSW 9.0 km/h 20.1 km/h 90 % 0.0 mm
23:29 17.8 °C 16.0 °C 1014.1 hPa WSW 16.3 km/h 23.8 km/h 90 % 0.0 mm
23:34 17.8 °C 16.0 °C 1014.1 hPa WSW 16.3 km/h 23.8 km/h 90 % 0.0 mm
23:39 17.8 °C 16.0 °C 1014.1 hPa West 16.9 km/h 22.7 km/h 90 % 0.0 mm
23:44 17.8 °C 16.0 °C 1014.1 hPa WSW 17.2 km/h 22.7 km/h 91 % 0.0 mm
23:49 17.8 °C 16.0 °C 1014.1 hPa West 13.7 km/h 21.2 km/h 91 % 0.0 mm
23:54 17.8 °C 16.0 °C 1014.1 hPa WSW 9.7 km/h 19.5 km/h 91 % 0.0 mm
23:59 17.8 °C 16.0 °C 1014.1 hPa WSW 10.1 km/h 20.9 km/h 91 % 0.0 mm
Le Gheer Warneton
Courtoisie de Weather Underground - 2.25 mb

Mise a jour : 18/12/2017 23:07:11
Généré par Cumulus 1.9.4 (1099)